View from above orbital plane
|
View from above satellite
|
Ground track
|
The orbit data is extracted from the following two-line orbital elements,
1 16369U 85116B 21016.45841744 .00000061 00000-0 46050-4 0 9999
2 16369 82.9375 94.5223 0037745 94.8664 276.4818 13.76864281761847
Epoch (UTC): | 16 January 2021 11:00:07 |
Eccentricity: | 0.0037745 |
inclination: | 82.9375° |
perigee height: | 947 km |
apogee height: | 1003 km |
right ascension of ascending node: | 94.5223° |
argument of perigee: | 94.8664° |
revolutions per day: | 13.76864281 |
mean anomaly at epoch: | 276.4818° |
orbit number at epoch: | 76184 |
The dashed part of the orbit path shows where the satellite is in the earth's shadow,
|
|